EW7149 Weather Reports


time (UTC)temp
C
wind
direction
speed
KPH
gust
KPH
rain 1hr
cm
rain 24hr
cm
rain mn
cm
humidity
%
barometer
mb
20260505205231 27 190 6.4 25.7 0.00 0.00 0.00 29 1007.5
20260505204221 27 147 4.8 32.2 0.00 0.00 0.00 29 1007.5
20260505203717 27 285 6.4 32.2 0.00 0.00 0.00 31 1007.6
20260505203227 27 155 8.0 32.2 0.00 0.00 0.00 30 1007.6
20260505202714 27 175 8.0 37.0 0.00 0.00 0.00 30 1007.7
20260505202221 27 146 9.7 37.0 0.00 0.00 0.00 30 1007.7
20260505195705 27 134 1.6 25.7 0.00 0.00 0.00 30 1007.9
20260505195201 27 255 3.2 25.7 0.00 0.00 0.00 30 1008.1
20260505194710 27 95 3.2 25.7 0.00 0.00 0.00 31 1008.0
20260505193701 27 132 0.0 22.5 0.00 0.00 0.00 31 1008.0
20260505193158 27 157 0.0 14.5 0.00 0.00 0.00 33 1008.0
20260505192646 27 134 0.0 0.0 0.00 0.00 0.00 31 1008.1
20260505192149 27 155 1.6 25.7 0.00 0.00 0.00 31 1008.2
20260505191633 27 97 1.6 25.7 0.00 0.00 0.00 31 1008.2
20260505191129 27 165 1.6 29.0 0.00 0.00 0.00 31 1008.5
20260505190626 27 249 3.2 29.0 0.00 0.00 0.00 32 1008.5
20260505190128 27 175 3.2 29.0 0.00 0.00 0.00 32 1008.5
20260505185637 27 141 1.6 29.0 0.00 0.00 0.00 33 1008.6
20260505185141 27 152 1.6 22.5 0.00 0.00 0.00 33 1008.6
20260505184625 27 148 1.6 22.5 0.00 0.00 0.00 33 1008.7
20260505184120 27 155 0.0 14.5 0.00 0.00 0.00 34 1008.8
20260505183627 27 271 0.0 25.7 0.00 0.00 0.00 32 1008.9
20260505183129 27 240 0.0 25.7 0.00 0.00 0.00 33 1008.8
20260505182130 27 165 3.2 25.7 0.00 0.00 0.00 32 1008.9
20260505181622 27 137 0.0 11.3 0.00 0.00 0.00 33 1009.2
20260505181125 27 172 1.6 8.0 0.00 0.00 0.00 34 1009.2
20260505180609 27 137 0.0 29.0 0.00 0.00 0.00 32 1009.3
20260505180111 27 166 0.0 14.5 0.00 0.00 0.00 34 1009.3
20260505175557 27 177 0.0 14.5 0.00 0.00 0.00 35 1009.4
20260505175040 27 157 0.0 11.3 0.00 0.00 0.00 32 1009.3
20260505174532 27 286 0.0 0.0 0.00 0.00 0.00 36 1009.4
20260505173527 27 254 0.0 12.9 0.00 0.00 0.00 35 1009.5
20260505173029 27 118 0.0 11.3 0.00 0.00 0.00 33 1009.7
20260505172512 27 260 0.0 11.3 0.00 0.00 0.00 34 1009.7
20260505172013 27 200 0.0 0.0 0.00 0.00 0.00 37 1009.6
20260505171523 26 157 0.0 29.0 0.00 0.00 0.00 35 1009.7
20260505171025 27 159 0.0 12.9 0.00 0.00 0.00 35 1009.7
20260505170531 27 173 0.0 11.3 0.00 0.00 0.00 36 1009.9
20260505170026 26 163 0.0 1.6 0.00 0.00 0.00 39 1010.0
20260505165523 26 164 0.0 16.1 0.00 0.00 0.00 38 1009.9
20260505164538 26 237 0.0 3.2 0.00 0.00 0.00 37 1010.2
20260505164021 26 253 0.0 16.1 0.00 0.00 0.00 38 1010.3
20260505163515 26 265 0.0 0.0 0.00 0.00 0.00 38 1010.2
20260505162958 26 130 0.0 14.5 0.00 0.00 0.00 39 1010.3
20260505162453 26 221 0.0 8.0 0.00 0.00 0.00 38 1010.3
20260505161451 26 262 0.0 20.9 0.00 0.00 0.00 38 1010.5
20260505160939 26 154 0.0 20.9 0.00 0.00 0.00 38 1010.4
20260505160441 26 142 0.0 20.9 0.00 0.00 0.00 39 1010.5
20260505152912 26 150 0.0 1.6 0.00 0.00 0.00 42 1010.6
20260505151845 25 166 0.0 19.3 0.00 0.00 0.00 39 1010.4
20260505151340 25 150 0.0 19.3 0.00 0.00 0.00 41 1010.5
20260505150340 25 150 0.0 11.3 0.00 0.00 0.00 42 1010.5
20260505140209 23 348 0.0 3.2 0.00 0.00 0.00 49 1010.6
20260505130125 18 234 0.0 0.0 0.00 0.00 0.00 57 1011.4
20260505124626 17 205 0.0 0.0 0.00 0.00 0.00 56 1011.5
20260505124114 17 168 0.0 0.0 0.00 0.00 0.00 56 1011.4
20260505123615 17 138 0.0 0.0 0.00 0.00 0.00 56 1011.5
20260505122602 16 228 0.0 0.0 0.00 0.00 0.00 55 1011.4
20260505122051 16 163 0.0 4.8 0.00 0.00 0.00 54 1011.5
20260505121549 16 132 0.0 0.0 0.00 0.00 0.00 54 1011.4
20260505121045 15 248 0.0 0.0 0.00 0.00 0.00 53 1011.4
20260505120547 15 316 0.0 0.0 0.00 0.00 0.00 53 1011.3
20260505120029 15 139 0.0 0.0 0.00 0.00 0.00 52 1011.2
20260505113949 15 161 0.0 0.0 0.00 0.00 0.00 51 1011.1
20260505113441 15 182 0.0 0.0 0.00 0.00 0.00 50 1011.1
20260505112933 15 157 0.0 0.0 0.00 0.00 0.00 50 1011.1
20260505112413 15 159 0.0 11.3 0.00 0.00 0.00 50 1011.0
20260505111902 15 165 0.0 4.8 0.00 0.00 0.00 49 1011.1
20260505110852 15 163 0.0 9.7 0.00 0.00 0.00 49 1010.9
20260505110343 15 150 0.0 4.8 0.00 0.00 0.00 49 1010.8
20260505102150 14 147 0.0 0.0 0.00 0.00 0.00 47 1010.3
20260505101658 14 150 0.0 0.0 0.00 0.00 0.00 47 1010.2
20260505100529 14 155 0.0 0.0 0.00 0.00 0.00 47 1010.2
20260505100014 14 182 0.0 0.0 0.00 0.00 0.00 47 1010.2
20260505095511 14 174 0.0 1.6 0.00 0.00 0.00 47 1010.1
20260505095016 14 163 0.0 8.0 0.00 0.00 0.00 47 1010.1
20260505094506 14 157 0.0 4.8 0.00 0.00 0.00 47 1010.0
20260505093952 14 150 0.0 0.0 0.00 0.00 0.00 47 1010.0
20260505093451 14 147 0.0 4.8 0.00 0.00 0.00 47 1010.0
20260505092950 15 163 0.0 0.0 0.00 0.00 0.00 48 1010.1
20260505092439 15 157 0.0 8.0 0.00 0.00 0.00 48 1010.1
20260505091942 15 160 0.0 11.3 0.00 0.00 0.00 49 1010.0
20260505091430 15 162 0.0 11.3 0.00 0.00 0.00 49 1010.0
20260505090920 15 153 0.0 12.9 0.00 0.00 0.00 49 1010.0
20260505090402 15 156 0.0 1.6 0.00 0.00 0.00 50 1009.9
20260505085230 15 159 0.0 3.2 0.00 0.00 0.00 50 1009.9
20260505084713 15 165 0.0 6.4 0.00 0.00 0.00 50 1009.9
20260505083600 15 166 0.0 11.3 0.00 0.00 0.00 51 1010.0
20260505082428 15 140 0.0 0.0 0.00 0.00 0.00 52 1010.0
20260505081936 15 163 0.0 6.4 0.00 0.00 0.00 52 1010.0
20260505081425 15 157 0.0 4.8 0.00 0.00 0.00 53 1010.0
20260505080911 15 161 0.0 1.6 0.00 0.00 0.00 53 1009.9
20260505080421 16 150 0.0 0.0 0.00 0.00 0.00 54 1009.8
20260505075908 16 169 0.0 0.0 0.00 0.00 0.00 54 1009.8
20260505075354 16 167 0.0 4.8 0.00 0.00 0.00 55 1009.7
20260505074842 16 126 0.0 4.8 0.00 0.00 0.00 55 1009.7
20260505074329 16 139 0.0 4.8 0.00 0.00 0.00 55 1009.7
20260505073820 16 155 0.0 1.6 0.00 0.00 0.00 55 1009.6
20260505073321 16 157 0.0 0.0 0.00 0.00 0.00 55 1009.6
20260505072807 16 148 0.0 6.4 0.00 0.00 0.00 54 1009.6
20260505072259 16 156 0.0 0.0 0.00 0.00 0.00 54 1009.7
20260505071801 16 153 0.0 0.0 0.00 0.00 0.00 54 1009.6
20260505071242 16 151 0.0 1.6 0.00 0.00 0.00 55 1009.6
20260505070746 16 153 0.0 0.0 0.00 0.00 0.00 54 1009.6
20260505070233 16 154 0.0 1.6 0.00 0.00 0.00 55 1009.6
20260505065715 16 157 0.0 0.0 0.00 0.00 0.00 54 1009.7
20260505065155 16 164 0.0 0.0 0.00 0.00 0.00 54 1009.8
20260505064655 16 173 0.0 3.2 0.00 0.00 0.00 54 1009.7
20260505064136 16 160 0.0 0.0 0.00 0.00 0.00 55 1009.8
20260505063642 16 153 0.0 8.0 0.00 0.00 0.00 55 1009.8
20260505063152 16 151 0.0 8.0 0.00 0.00 0.00 55 1009.8
20260505062641 16 151 0.0 4.8 0.00 0.00 0.00 56 1009.8
20260505062132 16 170 0.0 0.0 0.00 0.00 0.00 56 1009.8
20260505061626 16 170 0.0 0.0 0.00 0.00 0.00 56 1009.9
20260505061106 16 170 0.0 0.0 0.00 0.00 0.00 56 1009.8
20260505060555 16 170 0.0 4.8 0.00 0.00 0.00 56 1009.8
20260505060046 16 171 0.0 0.0 0.00 0.00 0.00 56 1009.8
20260505055553 16 161 0.0 1.6 0.00 0.00 0.00 56 1009.8
20260505055054 16 165 0.0 0.0 0.00 0.00 0.00 56 1009.8
20260505054536 17 153 0.0 4.8 0.00 0.00 0.00 57 1009.8
20260505054041 17 151 0.0 0.0 0.00 0.00 0.00 57 1009.8
20260505052907 17 128 0.0 0.0 0.00 0.00 0.00 57 1009.9
20260505051125 17 166 0.0 6.4 0.00 0.00 0.00 57 1009.9
20260505050623 17 141 0.0 0.0 0.00 0.00 0.00 57 1009.8
20260505041751 17 162 0.0 0.0 0.00 0.00 0.00 56 1009.8
20260505041243 17 182 0.0 9.7 0.00 0.00 0.00 56 1009.7
20260505040745 17 161 0.0 3.2 0.00 0.00 0.00 55 1009.7
20260505040252 17 149 0.0 4.8 0.00 0.00 0.00 55 1009.8
20260505035743 17 147 0.0 4.8 0.00 0.00 0.00 55 1009.8
20260505035234 17 163 0.0 0.0 0.00 0.00 0.00 55 1009.8
20260505034736 17 179 0.0 0.0 0.00 0.00 0.00 55 1009.8
20260505034243 17 156 0.0 4.8 0.00 0.00 0.00 55 1009.7
20260505033735 17 136 0.0 4.8 0.00 0.00 0.00 55 1009.8
20260505033236 17 158 0.0 9.7 0.00 0.00 0.00 55 1009.8
20260505032720 17 161 0.0 6.4 0.00 0.00 0.00 54 1009.8
20260505032206 17 169 0.0 1.6 0.00 0.00 0.00 54 1009.8
20260505031716 17 162 0.0 11.3 0.00 0.00 0.00 54 1009.8
20260505031200 17 153 0.0 4.8 0.00 0.00 0.00 54 1009.8
20260505030710 17 173 0.0 1.6 0.00 0.00 0.00 54 1009.8
20260505030213 17 161 0.0 0.0 0.00 0.00 0.00 54 1009.8
20260505025706 17 147 0.0 0.0 0.00 0.00 0.00 54 1009.8
20260505025215 17 157 0.0 0.0 0.00 0.00 0.00 53 1009.8
20260505024722 18 155 0.0 0.0 0.00 0.00 0.00 53 1009.8
20260505024204 18 175 0.0 0.0 0.00 0.00 0.00 53 1010.0
20260505023705 18 149 0.0 0.0 0.00 0.00 0.00 52 1009.9
20260505023151 18 148 0.0 0.0 0.00 0.00 0.00 52 1009.9
20260505022637 18 168 0.0 0.0 0.00 0.00 0.00 52 1009.9
20260505022130 18 158 0.0 0.0 0.00 0.00 0.00 51 1009.9
20260505021630 18 157 0.0 0.0 0.00 0.00 0.00 51 1009.9
20260505021132 18 154 0.0 0.0 0.00 0.00 0.00 50 1009.8
20260505020623 18 171 0.0 0.0 0.00 0.00 0.00 50 1009.8
20260505020132 18 172 0.0 0.0 0.00 0.00 0.00 50 1009.8
20260505015628 18 151 0.0 0.0 0.00 0.00 0.00 50 1009.7
20260505015118 18 170 0.0 0.0 0.00 0.00 0.00 49 1009.7
20260505014558 18 158 0.0 0.0 0.00 0.00 0.00 49 1009.8
20260505014105 19 156 0.0 0.0 0.00 0.00 0.00 49 1009.8
20260505013548 19 156 0.0 0.0 0.00 0.00 0.00 49 1009.8
20260505013041 19 172 0.0 0.0 0.00 0.00 0.00 48 1009.7
20260505012525 19 163 0.0 0.0 0.00 0.00 0.00 48 1009.5
20260505012029 19 150 0.0 0.0 0.00 0.00 0.00 48 1009.4
20260505011511 19 165 0.0 0.0 0.00 0.00 0.00 47 1009.4
20260505011011 19 163 0.0 0.0 0.00 0.00 0.00 47 1009.4
20260505010512 19 162 0.0 0.0 0.00 0.00 0.00 47 1009.3
20260505005953 20 154 0.0 0.0 0.00 0.00 0.00 46 1009.2
20260505004820 20 149 0.0 0.0 0.00 0.00 0.00 46 1009.1
20260505004309 20 157 0.0 0.0 0.00 0.00 0.00 46 1009.2
20260505003818 20 137 0.0 0.0 0.00 0.00 0.00 45 1009.2
20260505003317 20 158 0.0 0.0 0.00 0.00 0.00 45 1009.1
20260505002805 20 155 0.0 0.0 0.00 0.00 0.00 45 1009.2
20260505002307 20 159 0.0 0.0 0.00 0.00 0.00 44 1009.2
20260505001816 20 160 0.0 0.0 0.00 0.00 0.00 44 1009.1
20260505000707 21 151 0.0 0.0 0.00 0.00 0.00 43 1009.1
20260505000156 21 163 0.0 0.0 0.00 0.00 0.00 42 1009.1
20260504235652 21 140 0.0 0.0 0.00 0.00 0.00 42 1009.0
20260504235148 21 136 0.0 0.0 0.00 0.00 0.00 41 1009.0
20260504234658 21 180 0.0 0.0 0.00 0.00 0.00 41 1008.9
20260504234207 21 141 0.0 0.0 0.00 0.00 0.00 40 1008.9
20260504233702 21 150 0.0 8.0 0.00 0.00 0.00 39 1008.9
20260504233144 22 163 0.0 9.7 0.00 0.00 0.00 39 1008.8
20260504232634 22 156 0.0 12.9 0.00 0.00 0.00 39 1008.8
20260504231511 22 174 0.0 3.2 0.00 0.00 0.00 37 1008.8
20260504231011 23 171 0.0 0.0 0.00 0.00 0.00 37 1008.9
20260504230505 23 124 0.0 3.2 0.00 0.00 0.00 37 1008.8
20260504230008 23 153 0.0 1.6 0.00 0.00 0.00 36 1008.9
20260504225502 23 145 0.0 0.0 0.00 0.00 0.00 36 1009.0
20260504225005 23 187 0.0 3.2 0.00 0.00 0.00 36 1009.0
20260504224508 23 165 0.0 4.8 0.00 0.00 0.00 36 1009.0
20260504223956 23 156 0.0 9.7 0.00 0.00 0.00 36 1008.9
20260504223458 23 178 0.0 1.6 0.00 0.00 0.00 35 1008.9
20260504222955 23 152 0.0 0.0 0.00 0.00 0.00 36 1008.9
20260504222458 23 162 0.0 12.9 0.00 0.00 0.00 36 1008.9
20260504221953 23 145 0.0 12.9 0.00 0.00 0.00 35 1008.9
20260504221444 23 145 0.0 4.8 0.00 0.00 0.00 36 1008.8
20260504220925 23 161 0.0 4.8 0.00 0.00 0.00 37 1008.9
20260504220419 23 157 0.0 12.9 0.00 0.00 0.00 36 1009.0
20260504215913 23 181 0.0 12.9 0.00 0.00 0.00 34 1009.0
20260504215406 23 159 0.0 12.9 0.00 0.00 0.00 34 1009.0
20260504214851 24 169 0.0 9.7 0.00 0.00 0.00 34 1009.0
20260504214353 24 150 0.0 12.9 0.00 0.00 0.00 34 1009.0
20260504213846 24 187 0.0 3.2 0.00 0.00 0.00 34 1009.0
20260504212124 24 172 0.0 0.0 0.00 0.00 0.00 34 1009.0
20260504211619 24 123 0.0 12.9 0.00 0.00 0.00 35 1009.0
20260504211125 24 234 0.0 8.0 0.00 0.00 0.00 34 1009.0
20260504210616 24 142 0.0 8.0 0.00 0.00 0.00 34 1009.1